Time,TemperatureF,DewpointF,PressureIn,WindDirection,WindDirectionDegrees,WindSpeedMPH,WindSpeedGustMPH,Humidity,HourlyPrecipIn,Conditions,Clouds,dailyrainin,SoftwareType,DateUTC
2013-09-10 00:02:00,79.9,68.9,29.12,SSE,160,0.0,0.0,69,0.00,,---,0.00,VWS V14.00,2013-09-10 05:02:00,
2013-09-10 00:05:00,79.6,68.5,29.12,SSE,160,0.0,0.0,69,0.00,,---,0.00,VWS V14.00,2013-09-10 05:05:00,
2013-09-10 00:11:00,79.6,68.5,29.12,SSE,160,0.0,0.0,69,0.00,,---,0.00,VWS V14.00,2013-09-10 05:11:00,
2013-09-10 00:14:00,79.6,68.5,29.12,SSE,160,0.0,0.0,69,0.00,,---,0.00,VWS V14.00,2013-09-10 05:14:00,
2013-09-10 00:17:00,79.6,68.5,29.12,SSE,160,0.0,0.0,69,0.00,,---,0.00,VWS V14.00,2013-09-10 05:17:00,
2013-09-10 00:24:00,79.6,68.5,29.12,SSE,160,0.0,0.0,69,0.00,,---,0.00,VWS V14.00,2013-09-10 05:24:00,
2013-09-10 00:30:00,79.6,68.5,29.12,SSE,160,0.0,0.0,69,0.00,,---,0.00,VWS V14.00,2013-09-10 05:30:00,
2013-09-10 00:32:00,79.6,68.5,29.12,SSE,160,0.0,0.0,69,0.00,,---,0.00,VWS V14.00,2013-09-10 05:32:00,
2013-09-10 00:33:00,79.6,68.5,29.12,SSE,160,0.0,0.0,69,0.00,,---,0.00,VWS V14.00,2013-09-10 05:33:00,
2013-09-10 00:36:00,79.6,68.5,29.12,SSE,160,0.0,0.0,69,0.00,,---,0.00,VWS V14.00,2013-09-10 05:36:00,
2013-09-10 00:39:00,79.6,68.5,29.12,SSE,160,0.0,0.0,69,0.00,,---,0.00,VWS V14.00,2013-09-10 05:39:00,
2013-09-10 00:42:00,79.6,68.5,29.12,SSE,160,0.0,0.0,69,0.00,,---,0.00,VWS V14.00,2013-09-10 05:42:00,
2013-09-10 00:45:00,79.6,68.5,29.12,SSE,160,0.0,0.0,69,0.00,,---,0.00,VWS V14.00,2013-09-10 05:45:00,
2013-09-10 00:51:00,78.0,68.2,29.12,SSE,160,0.0,0.0,72,0.00,,---,0.00,VWS V14.00,2013-09-10 05:51:00,
2013-09-10 00:54:00,78.0,68.2,29.12,SSE,160,0.0,0.0,72,0.00,,---,0.00,VWS V14.00,2013-09-10 05:54:00,
2013-09-10 00:57:00,78.0,68.2,29.12,SSE,160,0.0,0.0,72,0.00,,---,0.00,VWS V14.00,2013-09-10 05:57:00,
2013-09-10 01:00:00,78.0,68.2,29.15,SSE,160,0.0,0.0,72,0.00,,---,0.00,VWS V14.00,2013-09-10 06:00:00,
2013-09-10 01:02:00,78.0,68.2,29.15,SSE,160,0.0,0.0,72,0.00,,---,0.00,VWS V14.00,2013-09-10 06:02:00,
2013-09-10 01:03:00,78.0,68.2,29.15,SSE,160,0.0,0.0,72,0.00,,---,0.00,VWS V14.00,2013-09-10 06:03:00,
2013-09-10 01:06:00,77.8,68.4,29.15,SSE,160,0.0,0.0,73,0.00,,---,0.00,VWS V14.00,2013-09-10 06:06:00,
2013-09-10 01:09:00,77.8,68.4,29.15,SSE,160,0.0,0.0,73,0.00,,---,0.00,VWS V14.00,2013-09-10 06:09:00,
2013-09-10 01:12:00,77.8,68.4,29.15,SSE,160,0.0,0.0,73,0.00,,---,0.00,VWS V14.00,2013-09-10 06:12:00,
2013-09-10 01:15:00,77.8,68.4,29.15,SSE,160,0.0,0.0,73,0.00,,---,0.00,VWS V14.00,2013-09-10 06:15:00,
2013-09-10 01:17:00,77.8,68.4,29.15,SSE,160,0.0,0.0,73,0.00,,---,0.00,VWS V14.00,2013-09-10 06:17:00,
2013-09-10 01:18:00,77.8,68.4,29.15,SSE,160,0.0,0.0,73,0.00,,---,0.00,VWS V14.00,2013-09-10 06:18:00,
2013-09-10 01:21:00,77.8,68.4,29.15,SSE,160,0.0,0.0,73,0.00,,---,0.00,VWS V14.00,2013-09-10 06:21:00,
2013-09-10 01:27:00,77.4,68.1,29.15,SSE,160,0.0,0.0,73,0.00,,---,0.00,VWS V14.00,2013-09-10 06:27:00,
2013-09-10 01:30:00,77.4,68.1,29.15,SSE,160,0.0,0.0,73,0.00,,---,0.00,VWS V14.00,2013-09-10 06:30:00,
2013-09-10 01:32:00,77.2,67.5,29.15,SSE,160,0.0,0.0,72,0.00,,---,0.00,VWS V14.00,2013-09-10 06:32:00,
2013-09-10 01:33:00,77.2,67.5,29.15,SSE,160,0.0,0.0,72,0.00,,---,0.00,VWS V14.00,2013-09-10 06:33:00,
2013-09-10 01:39:00,77.2,67.5,29.15,SSE,160,0.0,0.0,72,0.00,,---,0.00,VWS V14.00,2013-09-10 06:39:00,
2013-09-10 01:42:00,77.1,67.3,29.15,SSE,160,0.0,0.0,72,0.00,,---,0.00,VWS V14.00,2013-09-10 06:42:00,
2013-09-10 01:45:00,77.1,67.3,29.15,SSE,160,0.0,0.0,72,0.00,,---,0.00,VWS V14.00,2013-09-10 06:45:00,
2013-09-10 01:47:00,77.1,67.3,29.15,SSE,160,0.0,0.0,72,0.00,,---,0.00,VWS V14.00,2013-09-10 06:47:00,
2013-09-10 01:51:00,77.1,67.3,29.15,SSE,160,0.0,0.0,72,0.00,,---,0.00,VWS V14.00,2013-09-10 06:51:00,
2013-09-10 01:54:00,77.1,67.3,29.15,SSE,160,0.0,0.0,72,0.00,,---,0.00,VWS V14.00,2013-09-10 06:54:00,
2013-09-10 01:57:00,77.1,67.3,29.15,SSE,160,0.0,0.0,72,0.00,,---,0.00,VWS V14.00,2013-09-10 06:57:00,
2013-09-10 02:00:00,77.1,67.3,29.15,SSE,160,0.0,0.0,72,0.00,,---,0.00,VWS V14.00,2013-09-10 07:00:00,
2013-09-10 02:02:00,77.1,67.3,29.15,SSE,160,0.0,0.0,72,0.00,,---,0.00,VWS V14.00,2013-09-10 07:02:00,
2013-09-10 02:03:00,77.1,67.3,29.15,SSE,160,0.0,0.0,72,0.00,,---,0.00,VWS V14.00,2013-09-10 07:03:00,
2013-09-10 02:09:00,76.3,67.1,29.15,SSE,160,0.0,0.0,73,0.00,,---,0.00,VWS V14.00,2013-09-10 07:09:00,
2013-09-10 02:12:00,76.3,67.1,29.15,SSE,160,0.0,0.0,73,0.00,,---,0.00,VWS V14.00,2013-09-10 07:12:00,
2013-09-10 02:15:00,76.3,66.7,29.15,SSE,160,0.0,0.0,72,0.00,,---,0.00,VWS V14.00,2013-09-10 07:15:00,
2013-09-10 02:17:00,76.3,66.7,29.15,SSE,160,0.0,0.0,72,0.00,,---,0.00,VWS V14.00,2013-09-10 07:17:00,
2013-09-10 02:18:00,76.3,66.7,29.15,SSE,160,0.0,0.0,72,0.00,,---,0.00,VWS V14.00,2013-09-10 07:18:00,
2013-09-10 02:21:00,76.3,66.7,29.15,SSE,160,0.0,0.0,72,0.00,,---,0.00,VWS V14.00,2013-09-10 07:21:00,
2013-09-10 02:27:00,76.2,66.5,29.15,SSE,160,0.0,0.0,72,0.00,,---,0.00,VWS V14.00,2013-09-10 07:27:00,
2013-09-10 02:30:00,76.2,66.5,29.15,SSE,160,0.0,0.0,72,0.00,,---,0.00,VWS V14.00,2013-09-10 07:30:00,
2013-09-10 02:33:00,76.2,66.5,29.15,SSE,160,0.0,0.0,72,0.00,,---,0.00,VWS V14.00,2013-09-10 07:33:00,
2013-09-10 02:36:00,76.0,66.3,29.15,SSE,160,0.0,0.0,72,0.00,,---,0.00,VWS V14.00,2013-09-10 07:36:00,
2013-09-10 02:42:00,76.0,66.7,29.15,SSE,160,0.0,0.0,73,0.00,,---,0.00,VWS V14.00,2013-09-10 07:42:00,
2013-09-10 02:47:00,76.0,66.7,29.15,SSE,160,0.0,0.0,73,0.00,,---,0.00,VWS V14.00,2013-09-10 07:47:00,
2013-09-10 02:51:00,75.8,66.9,29.15,SSE,160,0.0,0.0,74,0.00,,---,0.00,VWS V14.00,2013-09-10 07:51:00,
2013-09-10 02:54:00,75.8,66.9,29.15,SSE,160,0.0,0.0,74,0.00,,---,0.00,VWS V14.00,2013-09-10 07:54:00,
2013-09-10 02:57:00,75.8,66.9,29.15,SSE,160,0.0,0.0,74,0.00,,---,0.00,VWS V14.00,2013-09-10 07:57:00,
2013-09-10 03:00:00,75.8,66.9,29.15,SSE,160,0.0,0.0,74,0.00,,---,0.00,VWS V14.00,2013-09-10 08:00:00,
2013-09-10 03:03:00,75.8,66.9,29.15,SSE,160,0.0,0.0,74,0.00,,---,0.00,VWS V14.00,2013-09-10 08:03:00,
2013-09-10 03:06:00,75.6,66.8,29.15,SSE,160,0.0,0.0,74,0.00,,---,0.00,VWS V14.00,2013-09-10 08:06:00,
2013-09-10 03:12:00,75.6,66.8,29.15,SSE,160,0.0,0.0,74,0.00,,---,0.00,VWS V14.00,2013-09-10 08:12:00,
2013-09-10 03:15:00,75.6,66.8,29.15,SSE,160,0.0,0.0,74,0.00,,---,0.00,VWS V14.00,2013-09-10 08:15:00,
2013-09-10 03:17:00,75.6,66.8,29.15,SSE,160,0.0,0.0,74,0.00,,---,0.00,VWS V14.00,2013-09-10 08:17:00,
2013-09-10 03:18:00,75.6,66.8,29.15,SSE,160,0.0,0.0,74,0.00,,---,0.00,VWS V14.00,2013-09-10 08:18:00,
2013-09-10 03:21:00,75.6,66.8,29.15,SSE,160,0.0,0.0,74,0.00,,---,0.00,VWS V14.00,2013-09-10 08:21:00,
2013-09-10 03:27:00,75.3,66.4,29.15,SSE,160,0.0,0.0,74,0.00,,---,0.00,VWS V14.00,2013-09-10 08:27:00,
2013-09-10 03:30:00,75.3,66.0,29.15,SSE,160,0.0,0.0,73,0.00,,---,0.00,VWS V14.00,2013-09-10 08:30:00,
2013-09-10 03:36:00,75.3,66.0,29.15,SSE,160,0.0,0.0,73,0.00,,---,0.00,VWS V14.00,2013-09-10 08:36:00,
2013-09-10 03:42:00,75.1,65.4,29.15,SSE,160,0.0,0.0,72,0.00,,---,0.00,VWS V14.00,2013-09-10 08:42:00,
2013-09-10 03:45:00,75.1,65.4,29.15,SSE,160,0.0,0.0,72,0.00,,---,0.00,VWS V14.00,2013-09-10 08:45:00,
2013-09-10 03:47:00,75.1,65.4,29.15,SSE,160,0.0,0.0,72,0.00,,---,0.00,VWS V14.00,2013-09-10 08:47:00,
2013-09-10 03:51:00,75.1,65.0,29.15,SSE,160,0.0,0.0,71,0.00,,---,0.00,VWS V14.00,2013-09-10 08:51:00,
2013-09-10 03:57:00,74.9,65.3,29.15,SSE,160,0.0,0.0,72,0.00,,---,0.00,VWS V14.00,2013-09-10 08:57:00,
2013-09-10 04:00:00,74.9,65.3,29.18,SSE,160,0.0,0.0,72,0.00,,---,0.00,VWS V14.00,2013-09-10 09:00:00,
2013-09-10 04:06:00,74.7,65.9,29.18,SSE,160,0.0,0.0,74,0.00,,---,0.00,VWS V14.00,2013-09-10 09:06:00,
2013-09-10 04:09:00,74.7,65.9,29.18,SSE,160,0.0,0.0,74,0.00,,---,0.00,VWS V14.00,2013-09-10 09:09:00,
2013-09-10 04:12:00,74.7,66.3,29.18,SSE,160,0.0,0.0,75,0.00,,---,0.00,VWS V14.00,2013-09-10 09:12:00,
2013-09-10 04:17:00,74.7,66.3,29.18,SSE,160,0.0,0.0,75,0.00,,---,0.00,VWS V14.00,2013-09-10 09:17:00,
2013-09-10 04:24:00,74.7,66.7,29.18,SSE,160,0.0,0.0,76,0.00,,---,0.00,VWS V14.00,2013-09-10 09:24:00,
2013-09-10 04:27:00,74.7,66.7,29.18,SSE,160,0.0,0.0,76,0.00,,---,0.00,VWS V14.00,2013-09-10 09:27:00,
2013-09-10 04:30:00,74.5,66.5,29.18,SSE,160,0.0,0.0,76,0.00,,---,0.00,VWS V14.00,2013-09-10 09:30:00,
2013-09-10 04:32:00,74.5,66.5,29.18,SSE,160,0.0,0.0,76,0.00,,---,0.00,VWS V14.00,2013-09-10 09:32:00,
2013-09-10 04:33:00,74.5,66.5,29.18,SSE,160,0.0,0.0,76,0.00,,---,0.00,VWS V14.00,2013-09-10 09:33:00,
2013-09-10 04:39:00,74.5,66.5,29.18,SSE,160,0.0,0.0,76,0.00,,---,0.00,VWS V14.00,2013-09-10 09:39:00,
2013-09-10 04:42:00,74.5,66.5,29.18,SSE,160,0.0,0.0,76,0.00,,---,0.00,VWS V14.00,2013-09-10 09:42:00,
2013-09-10 04:45:00,74.4,66.3,29.18,SSE,160,0.0,0.0,76,0.00,,---,0.00,VWS V14.00,2013-09-10 09:45:00,
2013-09-10 04:51:00,74.4,66.3,29.18,SSE,160,0.0,0.0,76,0.00,,---,0.00,VWS V14.00,2013-09-10 09:51:00,
2013-09-10 04:57:00,74.4,66.3,29.18,SSE,160,0.0,0.0,76,0.00,,---,0.00,VWS V14.00,2013-09-10 09:57:00,
2013-09-10 05:03:00,74.2,66.1,29.18,SSE,160,0.0,0.0,76,0.00,,---,0.00,VWS V14.00,2013-09-10 10:03:00,
2013-09-10 05:06:00,74.2,65.8,29.18,SSE,160,0.0,0.0,75,0.00,,---,0.00,VWS V14.00,2013-09-10 10:06:00,
2013-09-10 05:12:00,74.0,65.6,29.18,SSE,160,0.0,0.0,75,0.00,,---,0.00,VWS V14.00,2013-09-10 10:12:00,
2013-09-10 05:18:00,74.0,65.6,29.18,SSE,160,0.0,0.0,75,0.00,,---,0.00,VWS V14.00,2013-09-10 10:18:00,
2013-09-10 05:21:00,73.8,65.8,29.18,SSE,160,0.0,0.0,76,0.00,,---,0.00,VWS V14.00,2013-09-10 10:21:00,
2013-09-10 05:24:00,73.8,65.8,29.18,SSE,160,0.0,0.0,76,0.00,,---,0.00,VWS V14.00,2013-09-10 10:24:00,
2013-09-10 05:27:00,73.8,65.8,29.18,SSE,160,0.0,0.0,76,0.00,,---,0.00,VWS V14.00,2013-09-10 10:27:00,
2013-09-10 05:32:00,73.8,65.8,29.18,SSE,160,0.0,0.0,76,0.00,,---,0.00,VWS V14.00,2013-09-10 10:32:00,
2013-09-10 05:33:00,73.8,65.8,29.18,SSE,160,0.0,0.0,76,0.00,,---,0.00,VWS V14.00,2013-09-10 10:33:00,
2013-09-10 05:36:00,73.6,66.0,29.18,SSE,160,0.0,0.0,77,0.00,,---,0.00,VWS V14.00,2013-09-10 10:36:00,
2013-09-10 05:42:00,73.6,65.6,29.18,SSE,160,0.0,0.0,76,0.00,,---,0.00,VWS V14.00,2013-09-10 10:42:00,
2013-09-10 05:47:00,73.5,65.4,29.18,SSE,160,0.0,0.0,76,0.00,,---,0.00,VWS V14.00,2013-09-10 10:47:00,
2013-09-10 05:48:00,73.5,65.4,29.18,SSE,160,0.0,0.0,76,0.00,,---,0.00,VWS V14.00,2013-09-10 10:48:00,
2013-09-10 05:52:00,73.5,65.4,29.18,SSE,160,0.0,0.0,76,0.00,,---,0.00,VWS V14.00,2013-09-10 10:52:00,
2013-09-10 05:55:00,73.5,65.4,29.18,SSE,160,0.0,0.0,76,0.00,,---,0.00,VWS V14.00,2013-09-10 10:55:00,
2013-09-10 05:58:00,73.5,65.8,29.18,SSE,160,0.0,0.0,77,0.00,,---,0.00,VWS V14.00,2013-09-10 10:58:00,
2013-09-10 06:01:00,73.5,65.8,29.21,SSE,160,0.0,0.0,77,0.00,,---,0.00,VWS V14.00,2013-09-10 11:01:00,
2013-09-10 06:02:00,73.5,65.8,29.21,SSE,160,0.0,0.0,77,0.00,,---,0.00,VWS V14.00,2013-09-10 11:02:00,
2013-09-10 06:07:00,73.3,65.6,29.21,SSE,160,0.0,0.0,77,0.00,,---,0.00,VWS V14.00,2013-09-10 11:07:00,
2013-09-10 06:10:00,73.3,65.6,29.21,SSE,160,0.0,0.0,77,0.00,,---,0.00,VWS V14.00,2013-09-10 11:10:00,
2013-09-10 06:16:00,73.3,65.6,29.21,SSE,160,0.0,0.0,77,0.00,,---,0.00,VWS V14.00,2013-09-10 11:16:00,
2013-09-10 06:19:00,73.3,65.6,29.21,SSE,160,0.0,0.0,77,0.00,,---,0.00,VWS V14.00,2013-09-10 11:19:00,
2013-09-10 06:25:00,73.1,65.5,29.21,SSE,160,0.0,0.0,77,0.00,,---,0.00,VWS V14.00,2013-09-10 11:25:00,
2013-09-10 06:28:00,73.1,65.5,29.21,SSE,160,0.0,0.0,77,0.00,,---,0.00,VWS V14.00,2013-09-10 11:28:00,
2013-09-10 06:31:00,73.1,65.8,29.21,SSE,160,0.0,0.0,78,0.00,,---,0.00,VWS V14.00,2013-09-10 11:31:00,
2013-09-10 06:34:00,73.1,65.8,29.21,SSE,160,0.0,0.0,78,0.00,,---,0.00,VWS V14.00,2013-09-10 11:34:00,
2013-09-10 06:37:00,73.1,65.8,29.21,SSE,160,0.0,0.0,78,0.00,,---,0.00,VWS V14.00,2013-09-10 11:37:00,
2013-09-10 06:43:00,72.7,65.5,29.21,SSE,160,0.0,0.0,78,0.00,,---,0.00,VWS V14.00,2013-09-10 11:43:00,
2013-09-10 06:46:00,72.7,65.9,29.21,SSE,160,0.0,0.0,79,0.00,,---,0.00,VWS V14.00,2013-09-10 11:46:00,
2013-09-10 06:52:00,72.6,65.7,29.21,SSE,160,0.0,0.0,79,0.00,,---,0.00,VWS V14.00,2013-09-10 11:52:00,
2013-09-10 06:55:00,72.6,65.7,29.21,SSE,160,0.0,0.0,79,0.00,,---,0.00,VWS V14.00,2013-09-10 11:55:00,
2013-09-10 06:58:00,72.6,65.7,29.21,SSE,160,0.0,0.0,79,0.00,,---,0.00,VWS V14.00,2013-09-10 11:58:00,
2013-09-10 07:01:00,72.6,65.7,29.21,SSE,160,0.0,0.0,79,0.00,,---,0.00,VWS V14.00,2013-09-10 12:01:00,
2013-09-10 07:02:00,72.6,66.0,29.21,SSE,160,0.0,0.0,80,0.00,,---,0.00,VWS V14.00,2013-09-10 12:02:00,
2013-09-10 07:04:00,72.6,66.0,29.21,SSE,160,0.0,0.0,80,0.00,,---,0.00,VWS V14.00,2013-09-10 12:04:00,
2013-09-10 07:07:00,72.6,66.0,29.21,SSE,160,0.0,0.0,80,0.00,,---,0.00,VWS V14.00,2013-09-10 12:07:00,
2013-09-10 07:10:00,72.6,66.0,29.21,SSE,160,0.0,0.0,80,0.00,,---,0.00,VWS V14.00,2013-09-10 12:10:00,
2013-09-10 07:13:00,72.7,66.2,29.21,SSE,160,0.0,0.0,80,0.00,,---,0.00,VWS V14.00,2013-09-10 12:13:00,
2013-09-10 07:16:00,72.7,66.2,29.21,SSE,160,0.0,0.0,80,0.00,,---,0.00,VWS V14.00,2013-09-10 12:16:00,
2013-09-10 07:22:00,72.9,66.4,29.21,SSE,160,0.0,0.0,80,0.00,,---,0.00,VWS V14.00,2013-09-10 12:22:00,
2013-09-10 07:25:00,72.9,66.4,29.21,SSE,160,0.0,0.0,80,0.00,,---,0.00,VWS V14.00,2013-09-10 12:25:00,
2013-09-10 07:28:00,72.9,66.4,29.21,SSE,160,0.0,0.0,80,0.00,,---,0.00,VWS V14.00,2013-09-10 12:28:00,
2013-09-10 07:31:00,73.1,66.6,29.21,SSE,160,0.0,0.0,80,0.00,,---,0.00,VWS V14.00,2013-09-10 12:31:00,
2013-09-10 07:37:00,73.3,66.7,29.21,SSE,160,0.0,0.0,80,0.00,,---,0.00,VWS V14.00,2013-09-10 12:37:00,
2013-09-10 07:40:00,73.3,66.7,29.21,SSE,160,0.0,0.0,80,0.00,,---,0.00,VWS V14.00,2013-09-10 12:40:00,
2013-09-10 07:43:00,73.3,66.7,29.21,SSE,160,0.0,0.0,80,0.00,,---,0.00,VWS V14.00,2013-09-10 12:43:00,
2013-09-10 07:49:00,73.6,67.1,29.23,SSE,160,0.0,0.0,80,0.00,,---,0.00,VWS V14.00,2013-09-10 12:49:00,
2013-09-10 07:52:00,73.6,67.1,29.23,SSE,160,0.0,0.0,80,0.00,,---,0.00,VWS V14.00,2013-09-10 12:52:00,
2013-09-10 07:55:00,74.2,68.0,29.23,SSE,160,0.0,0.0,81,0.00,,---,0.00,VWS V14.00,2013-09-10 12:55:00,
2013-09-10 07:58:00,74.2,68.0,29.23,SSE,160,0.0,0.0,81,0.00,,---,0.00,VWS V14.00,2013-09-10 12:58:00,
2013-09-10 08:01:00,74.7,68.2,29.23,SSE,160,0.0,0.0,80,0.00,,---,0.00,VWS V14.00,2013-09-10 13:01:00,
2013-09-10 08:04:00,74.7,68.2,29.23,SSE,160,0.0,0.0,80,0.00,,---,0.00,VWS V14.00,2013-09-10 13:04:00,
2013-09-10 08:10:00,75.3,68.7,29.23,SSE,160,0.0,0.0,80,0.00,,---,0.00,VWS V14.00,2013-09-10 13:10:00,
2013-09-10 08:16:00,75.6,69.0,29.23,SSE,160,0.0,0.0,80,0.00,,---,0.00,VWS V14.00,2013-09-10 13:16:00,
2013-09-10 08:19:00,76.2,69.2,29.23,SSE,160,3.6,3.6,79,0.00,,---,0.00,VWS V14.00,2013-09-10 13:19:00,
2013-09-10 08:22:00,76.2,69.2,29.23,SSE,160,0.0,3.6,79,0.00,,---,0.00,VWS V14.00,2013-09-10 13:22:00,
2013-09-10 08:25:00,76.2,69.2,29.23,SSE,160,0.0,3.6,79,0.00,,---,0.00,VWS V14.00,2013-09-10 13:25:00,
2013-09-10 08:31:00,77.1,69.3,29.23,SSE,160,0.0,3.6,77,0.00,,---,0.00,VWS V14.00,2013-09-10 13:31:00,
2013-09-10 08:32:00,77.1,69.3,29.23,SSE,160,0.0,3.6,77,0.00,,---,0.00,VWS V14.00,2013-09-10 13:32:00,
2013-09-10 08:34:00,77.1,69.3,29.23,SSE,160,0.0,0.0,77,0.00,,---,0.00,VWS V14.00,2013-09-10 13:34:00,
2013-09-10 08:40:00,77.8,69.6,29.23,SSE,166,0.0,0.0,76,0.00,,---,0.00,VWS V14.00,2013-09-10 13:40:00,
2013-09-10 08:43:00,77.8,69.6,29.23,SSE,166,0.0,0.0,76,0.00,,---,0.00,VWS V14.00,2013-09-10 13:43:00,
2013-09-10 08:47:00,79.4,70.4,29.23,SSE,167,0.0,0.0,74,0.00,,---,0.00,VWS V14.00,2013-09-10 13:47:00,
2013-09-10 08:49:00,79.4,70.4,29.23,SSE,167,0.0,0.0,74,0.00,,---,0.00,VWS V14.00,2013-09-10 13:49:00,
2013-09-10 08:52:00,79.9,70.5,29.23,SSE,167,0.0,0.0,73,0.00,,---,0.00,VWS V14.00,2013-09-10 13:52:00,
2013-09-10 08:58:00,80.3,70.5,29.23,South,178,2.7,2.7,72,0.00,,---,0.00,VWS V14.00,2013-09-10 13:58:00,
2013-09-10 09:01:00,81.0,70.7,29.23,South,178,2.7,2.7,71,0.00,,---,0.00,VWS V14.00,2013-09-10 14:01:00,
2013-09-10 09:02:00,81.6,70.8,29.23,South,178,2.7,2.7,70,0.00,,---,0.00,VWS V14.00,2013-09-10 14:02:00,
2013-09-10 09:04:00,81.6,70.8,29.23,South,178,0.0,2.7,70,0.00,,---,0.00,VWS V14.00,2013-09-10 14:04:00,
2013-09-10 09:07:00,81.6,70.8,29.23,South,178,2.7,2.7,70,0.00,,---,0.00,VWS V14.00,2013-09-10 14:07:00,
2013-09-10 09:13:00,83.4,71.3,29.23,South,183,2.7,3.1,67,0.00,,---,0.00,VWS V14.00,2013-09-10 14:13:00,
2013-09-10 09:17:00,84.1,71.5,29.23,South,183,2.2,3.1,66,0.00,,---,0.00,VWS V14.00,2013-09-10 14:17:00,
2013-09-10 09:19:00,84.1,71.5,29.23,South,183,0.0,2.2,66,0.00,,---,0.00,VWS V14.00,2013-09-10 14:19:00,
2013-09-10 09:25:00,85.0,71.4,29.23,South,183,0.0,2.7,64,0.00,,---,0.00,VWS V14.00,2013-09-10 14:25:00,
2013-09-10 09:31:00,85.5,71.5,29.23,South,183,0.0,2.7,63,0.00,,---,0.00,VWS V14.00,2013-09-10 14:31:00,
2013-09-10 09:32:00,86.6,71.6,29.23,South,183,0.0,2.7,61,0.00,,---,0.00,VWS V14.00,2013-09-10 14:32:00,
2013-09-10 09:34:00,86.6,71.6,29.23,South,187,0.0,0.0,61,0.00,,---,0.00,VWS V14.00,2013-09-10 14:34:00,
2013-09-10 09:37:00,87.1,71.6,29.23,South,187,2.7,2.7,60,0.00,,---,0.00,VWS V14.00,2013-09-10 14:37:00,
2013-09-10 09:40:00,88.0,71.9,29.23,South,187,0.0,2.7,59,0.00,,---,0.00,VWS V14.00,2013-09-10 14:40:00,
2013-09-10 09:43:00,88.0,71.4,29.26,South,187,0.0,2.7,58,0.00,,---,0.00,VWS V14.00,2013-09-10 14:43:00,
2013-09-10 09:46:00,88.8,71.6,29.26,SSE,155,2.7,2.7,57,0.00,,---,0.00,VWS V14.00,2013-09-10 14:46:00,
2013-09-10 09:47:00,89.1,71.4,29.26,SSE,155,2.2,2.7,56,0.00,,---,0.00,VWS V14.00,2013-09-10 14:47:00,
2013-09-10 09:52:00,90.0,71.7,29.26,South,177,3.6,3.6,55,0.00,,---,0.00,VWS V14.00,2013-09-10 14:52:00,
2013-09-10 09:55:00,90.0,71.7,29.26,South,180,3.1,3.6,55,0.00,,---,0.00,VWS V14.00,2013-09-10 14:55:00,
2013-09-10 09:58:00,90.0,71.7,29.26,SSE,162,3.1,3.6,55,0.00,,---,0.00,VWS V14.00,2013-09-10 14:58:00,
2013-09-10 10:02:00,91.8,72.3,29.26,South,177,3.1,3.6,53,0.00,,---,0.00,VWS V14.00,2013-09-10 15:02:00,
2013-09-10 10:04:00,92.9,72.1,29.26,South,177,2.2,3.1,51,0.00,,---,0.00,VWS V14.00,2013-09-10 15:04:00,
2013-09-10 10:07:00,93.1,71.7,29.26,SSE,158,0.0,3.1,50,0.00,,---,0.00,VWS V14.00,2013-09-10 15:07:00,
2013-09-10 10:10:00,93.6,72.2,29.26,SSE,159,2.2,3.1,50,0.00,,---,0.00,VWS V14.00,2013-09-10 15:10:00,
2013-09-10 10:13:00,93.6,72.2,29.26,SSE,159,2.2,3.1,50,0.00,,---,0.00,VWS V14.00,2013-09-10 15:13:00,
2013-09-10 10:16:00,94.9,71.5,29.26,SSE,159,0.0,3.1,47,0.00,,---,0.00,VWS V14.00,2013-09-10 15:16:00,
2013-09-10 10:19:00,95.4,71.4,29.26,SSE,159,0.0,0.0,46,0.00,,---,0.00,VWS V14.00,2013-09-10 15:19:00,
2013-09-10 10:22:00,95.4,71.4,29.26,South,179,2.7,2.7,46,0.00,,---,0.00,VWS V14.00,2013-09-10 15:22:00,
2013-09-10 10:25:00,96.3,71.5,29.26,South,179,0.0,2.7,45,0.00,,---,0.00,VWS V14.00,2013-09-10 15:25:00,
2013-09-10 10:28:00,96.5,71.0,29.26,South,182,2.7,2.7,44,0.00,,---,0.00,VWS V14.00,2013-09-10 15:28:00,
2013-09-10 10:31:00,97.0,70.8,29.26,South,182,2.7,2.7,43,0.00,,---,0.00,VWS V14.00,2013-09-10 15:31:00,
2013-09-10 10:34:00,97.2,71.0,29.26,South,182,2.7,2.7,43,0.00,,---,0.00,VWS V14.00,2013-09-10 15:34:00,
2013-09-10 10:37:00,97.2,71.0,29.26,South,169,2.7,3.6,43,0.00,,---,0.00,VWS V14.00,2013-09-10 15:37:00,
2013-09-10 10:40:00,97.2,71.0,29.26,South,172,3.1,3.6,43,0.00,,---,0.00,VWS V14.00,2013-09-10 15:40:00,
2013-09-10 10:46:00,97.8,70.1,29.26,South,172,3.1,3.6,41,0.00,,---,0.00,VWS V14.00,2013-09-10 15:46:00,
2013-09-10 10:49:00,97.8,69.4,29.26,South,172,2.7,3.1,40,0.00,,---,0.00,VWS V14.00,2013-09-10 15:49:00,
2013-09-10 10:52:00,97.8,69.4,29.26,South,172,2.7,3.1,40,0.00,,---,0.00,VWS V14.00,2013-09-10 15:52:00,
2013-09-10 10:55:00,97.6,69.2,29.26,South,174,0.0,3.1,40,0.00,,---,0.00,VWS V14.00,2013-09-10 15:55:00,
2013-09-10 10:58:00,97.6,69.2,29.26,South,176,2.2,3.1,40,0.00,,---,0.00,VWS V14.00,2013-09-10 15:58:00,
2013-09-10 11:02:00,97.6,69.2,29.26,South,176,2.2,3.1,40,0.00,,---,0.00,VWS V14.00,2013-09-10 16:02:00,
2013-09-10 11:05:00,97.6,69.2,29.26,South,175,3.1,3.6,40,0.00,,---,0.00,VWS V14.00,2013-09-10 16:05:00,
2013-09-10 11:08:00,97.4,69.1,29.23,South,175,0.0,3.6,40,0.00,,---,0.00,VWS V14.00,2013-09-10 16:08:00,
2013-09-10 11:14:00,97.2,68.9,29.23,South,175,0.0,3.6,40,0.00,,---,0.00,VWS V14.00,2013-09-10 16:14:00,
2013-09-10 11:17:00,97.2,68.9,29.26,SSW,198,0.0,3.6,40,0.00,,---,0.00,VWS V14.00,2013-09-10 16:17:00,
2013-09-10 11:20:00,97.2,68.9,29.26,SSW,198,0.0,0.0,40,0.00,,---,0.00,VWS V14.00,2013-09-10 16:20:00,
2013-09-10 11:23:00,97.2,68.9,29.26,SSW,210,0.0,0.0,40,0.00,,---,0.00,VWS V14.00,2013-09-10 16:23:00,
2013-09-10 11:29:00,97.2,68.9,29.26,SW,229,0.0,0.0,40,0.00,,---,0.00,VWS V14.00,2013-09-10 16:29:00,
2013-09-10 11:32:00,97.4,69.1,29.26,NE,35,0.0,0.0,40,0.00,,---,0.00,VWS V14.00,2013-09-10 16:32:00,
2013-09-10 11:38:00,97.6,68.5,29.26,North,0,0.0,0.0,39,0.00,,---,0.00,VWS V14.00,2013-09-10 16:38:00,
2013-09-10 11:44:00,97.8,68.6,29.26,NNW,342,0.0,0.0,39,0.00,,---,0.00,VWS V14.00,2013-09-10 16:44:00,
2013-09-10 11:47:00,97.9,68.8,29.26,NNW,342,0.0,3.1,39,0.00,,---,0.00,VWS V14.00,2013-09-10 16:47:00,
2013-09-10 11:53:00,98.1,68.2,29.26,NE,44,0.0,0.0,38,0.00,,---,0.00,VWS V14.00,2013-09-10 16:53:00,
2013-09-10 11:56:00,98.1,68.2,29.26,North,0,0.0,0.0,38,0.00,,---,0.00,VWS V14.00,2013-09-10 16:56:00,
2013-09-10 11:59:00,98.3,68.3,29.26,North,0,0.0,0.0,38,0.00,,---,0.00,VWS V14.00,2013-09-10 16:59:00,
2013-09-10 12:02:00,98.5,68.5,29.26,North,353,0.0,0.0,38,0.00,,---,0.00,VWS V14.00,2013-09-10 17:02:00,
2013-09-10 12:08:00,98.8,68.8,29.26,ESE,119,3.1,3.1,38,0.00,,---,0.00,VWS V14.00,2013-09-10 17:08:00,
2013-09-10 12:11:00,99.0,69.0,29.26,SSE,149,0.0,3.1,38,0.00,,---,0.00,VWS V14.00,2013-09-10 17:11:00,
2013-09-10 12:17:00,99.2,68.4,29.26,SSE,156,0.0,3.1,37,0.00,,---,0.00,VWS V14.00,2013-09-10 17:17:00,
2013-09-10 12:20:00,99.4,68.5,29.26,SSE,156,0.0,0.0,37,0.00,,---,0.00,VWS V14.00,2013-09-10 17:20:00,
2013-09-10 12:23:00,99.6,68.7,29.23,SSE,156,0.0,0.0,37,0.00,,---,0.00,VWS V14.00,2013-09-10 17:23:00,
2013-09-10 12:26:00,99.6,68.7,29.23,SSE,166,3.6,3.6,37,0.00,,---,0.00,VWS V14.00,2013-09-10 17:26:00,
2013-09-10 12:29:00,99.7,68.1,29.23,SSE,156,0.0,3.6,36,0.00,,---,0.00,VWS V14.00,2013-09-10 17:29:00,
2013-09-10 12:32:00,99.7,68.1,29.23,SSE,156,0.0,3.6,36,0.00,,---,0.00,VWS V14.00,2013-09-10 17:32:00,
2013-09-10 12:35:00,100.1,68.4,29.23,SSE,156,0.0,0.0,36,0.00,,---,0.00,VWS V14.00,2013-09-10 17:35:00,
2013-09-10 12:41:00,100.3,68.5,29.23,SSW,209,0.0,0.0,36,0.00,,---,0.00,VWS V14.00,2013-09-10 17:41:00,
2013-09-10 12:47:00,100.3,68.5,29.23,SSW,209,0.0,0.0,36,0.00,,---,0.00,VWS V14.00,2013-09-10 17:47:00,
2013-09-10 12:50:00,100.5,68.7,29.23,SSW,209,0.0,0.0,36,0.00,,---,0.00,VWS V14.00,2013-09-10 17:50:00,
2013-09-10 12:53:00,100.5,68.7,29.23,SSW,209,0.0,0.0,36,0.00,,---,0.00,VWS V14.00,2013-09-10 17:53:00,
2013-09-10 12:56:00,100.5,67.9,29.23,NNW,335,0.0,0.0,35,0.00,,---,0.00,VWS V14.00,2013-09-10 17:56:00,
2013-09-10 12:59:00,100.5,67.9,29.23,NNE,33,0.0,0.0,35,0.00,,---,0.00,VWS V14.00,2013-09-10 17:59:00,
2013-09-10 13:02:00,100.5,67.9,29.23,North,9,0.0,0.0,35,0.00,,---,0.00,VWS V14.00,2013-09-10 18:02:00,
2013-09-10 13:08:00,100.6,68.0,29.23,SSW,195,2.7,3.1,35,0.00,,---,0.00,VWS V14.00,2013-09-10 18:08:00,
2013-09-10 13:14:00,100.6,67.2,29.23,SSE,149,4.9,4.9,34,0.00,,---,0.00,VWS V14.00,2013-09-10 18:14:00,
2013-09-10 13:17:00,100.6,67.2,29.23,SE,145,0.0,4.9,34,0.00,,---,0.00,VWS V14.00,2013-09-10 18:17:00,
2013-09-10 13:23:00,100.5,66.2,29.23,SSW,198,3.6,3.6,33,0.00,,---,0.00,VWS V14.00,2013-09-10 18:23:00,
2013-09-10 13:29:00,100.5,65.3,29.23,SSW,206,0.0,5.4,32,0.00,,---,0.00,VWS V14.00,2013-09-10 18:29:00,
2013-09-10 13:35:00,100.5,65.3,29.23,SSE,156,3.1,3.1,32,0.00,,---,0.00,VWS V14.00,2013-09-10 18:35:00,
2013-09-10 13:41:00,100.3,65.1,29.23,SSE,154,0.0,3.1,32,0.00,,---,0.00,VWS V14.00,2013-09-10 18:41:00,
2013-09-10 13:44:00,100.3,65.1,29.23,SSE,155,0.0,3.1,32,0.00,,---,0.00,VWS V14.00,2013-09-10 18:44:00,
2013-09-10 13:47:00,100.3,65.1,29.21,SSW,195,3.1,3.1,32,0.00,,---,0.00,VWS V14.00,2013-09-10 18:47:00,
2013-09-10 13:50:00,100.3,64.2,29.21,SSE,161,3.1,3.1,31,0.00,,---,0.00,VWS V14.00,2013-09-10 18:50:00,
2013-09-10 13:53:00,100.3,64.2,29.21,SSW,197,0.0,3.6,31,0.00,,---,0.00,VWS V14.00,2013-09-10 18:53:00,
2013-09-10 13:56:00,100.3,64.2,29.21,SW,226,0.0,3.6,31,0.00,,---,0.00,VWS V14.00,2013-09-10 18:56:00,
2013-09-10 13:59:00,100.3,64.2,29.21,SW,218,3.1,3.6,31,0.00,,---,0.00,VWS V14.00,2013-09-10 18:59:00,
2013-09-10 14:02:00,100.3,64.2,29.21,South,173,2.7,2.7,31,0.00,,---,0.00,VWS V14.00,2013-09-10 19:02:00,
2013-09-10 14:05:00,100.5,64.4,29.21,SE,136,3.1,3.1,31,0.00,,---,0.00,VWS V14.00,2013-09-10 19:05:00,
2013-09-10 14:08:00,100.5,64.4,29.21,SSE,153,0.0,3.6,31,0.00,,---,0.00,VWS V14.00,2013-09-10 19:08:00,
2013-09-10 14:11:00,100.5,64.4,29.21,SW,225,0.0,3.6,31,0.00,,---,0.00,VWS V14.00,2013-09-10 19:11:00,
2013-09-10 14:17:00,100.3,63.3,29.21,SSW,200,2.7,3.6,30,0.00,,---,0.00,VWS V14.00,2013-09-10 19:17:00,
2013-09-10 14:20:00,100.3,63.3,29.21,SE,144,0.0,2.7,30,0.00,,---,0.00,VWS V14.00,2013-09-10 19:20:00,
2013-09-10 14:23:00,100.3,63.3,29.21,SE,144,0.0,2.7,30,0.00,,---,0.00,VWS V14.00,2013-09-10 19:23:00,
2013-09-10 14:26:00,100.3,63.3,29.21,SSE,166,3.1,3.1,30,0.00,,---,0.00,VWS V14.00,2013-09-10 19:26:00,
2013-09-10 14:29:00,100.3,63.3,29.21,SSE,157,3.6,3.6,30,0.00,,---,0.00,VWS V14.00,2013-09-10 19:29:00,
2013-09-10 14:32:00,100.3,63.3,29.21,South,176,5.8,5.8,30,0.00,,---,0.00,VWS V14.00,2013-09-10 19:32:00,
2013-09-10 14:35:00,100.5,62.5,29.21,South,176,5.8,5.8,29,0.00,,---,0.00,VWS V14.00,2013-09-10 19:35:00,
2013-09-10 14:38:00,100.3,62.3,29.21,SSE,157,3.6,5.8,29,0.00,,---,0.00,VWS V14.00,2013-09-10 19:38:00,
2013-09-10 14:44:00,100.3,62.3,29.21,South,182,3.6,5.8,29,0.00,,---,0.00,VWS V14.00,2013-09-10 19:44:00,
2013-09-10 14:47:00,100.3,62.3,29.21,SSE,159,3.1,5.8,29,0.00,,---,0.00,VWS V14.00,2013-09-10 19:47:00,
2013-09-10 14:53:00,100.3,62.3,29.21,SSE,160,3.1,3.1,29,0.00,,---,0.00,VWS V14.00,2013-09-10 19:53:00,
2013-09-10 14:56:00,100.3,62.3,29.21,SSE,160,3.1,3.1,29,0.00,,---,0.00,VWS V14.00,2013-09-10 19:56:00,
2013-09-10 14:59:00,100.3,62.3,29.21,South,178,2.7,3.1,29,0.00,,---,0.00,VWS V14.00,2013-09-10 19:59:00,
2013-09-10 15:02:00,100.3,62.3,29.21,SSE,158,3.1,3.1,29,0.00,,---,0.00,VWS V14.00,2013-09-10 20:02:00,
2013-09-10 15:05:00,100.3,62.3,29.21,SSE,155,0.0,3.1,29,0.00,,---,0.00,VWS V14.00,2013-09-10 20:05:00,
2013-09-10 15:08:00,100.3,62.3,29.21,SSE,150,2.7,3.1,29,0.00,,---,0.00,VWS V14.00,2013-09-10 20:08:00,
2013-09-10 15:11:00,100.3,62.3,29.21,SSW,196,0.0,3.1,29,0.00,,---,0.00,VWS V14.00,2013-09-10 20:11:00,
2013-09-10 15:14:00,100.3,62.3,29.21,SSW,196,0.0,3.1,29,0.00,,---,0.00,VWS V14.00,2013-09-10 20:14:00,
2013-09-10 15:17:00,100.1,62.2,29.21,SSW,196,0.0,3.1,29,0.00,,---,0.00,VWS V14.00,2013-09-10 20:17:00,
2013-09-10 15:20:00,100.3,62.3,29.21,SSW,196,0.0,0.0,29,0.00,,---,0.00,VWS V14.00,2013-09-10 20:20:00,
2013-09-10 15:23:00,100.3,62.3,29.21,SSW,196,0.0,0.0,29,0.00,,---,0.00,VWS V14.00,2013-09-10 20:23:00,
2013-09-10 15:26:00,100.3,62.3,29.21,SW,235,0.0,3.1,29,0.00,,---,0.00,VWS V14.00,2013-09-10 20:26:00,
2013-09-10 15:29:00,100.5,62.5,29.18,SW,235,0.0,3.1,29,0.00,,---,0.00,VWS V14.00,2013-09-10 20:29:00,
2013-09-10 15:32:00,100.5,62.5,29.18,SSE,158,0.0,3.1,29,0.00,,---,0.00,VWS V14.00,2013-09-10 20:32:00,
2013-09-10 15:38:00,100.5,62.5,29.18,SW,220,0.0,2.7,29,0.00,,---,0.00,VWS V14.00,2013-09-10 20:38:00,
2013-09-10 15:41:00,100.5,62.5,29.18,SW,220,0.0,2.7,29,0.00,,---,0.00,VWS V14.00,2013-09-10 20:41:00,
2013-09-10 15:44:00,100.5,62.5,29.18,SW,220,0.0,2.7,29,0.00,,---,0.00,VWS V14.00,2013-09-10 20:44:00,
2013-09-10 15:47:00,100.5,62.5,29.18,South,177,0.0,2.7,29,0.00,,---,0.00,VWS V14.00,2013-09-10 20:47:00,
2013-09-10 15:53:00,100.5,62.5,29.18,SSW,211,0.0,3.6,29,0.00,,---,0.00,VWS V14.00,2013-09-10 20:53:00,
2013-09-10 15:56:00,100.5,61.5,29.18,SW,226,0.0,3.6,28,0.00,,---,0.00,VWS V14.00,2013-09-10 20:56:00,
2013-09-10 16:02:00,100.5,61.5,29.18,SSW,207,0.0,3.6,28,0.00,,---,0.00,VWS V14.00,2013-09-10 21:02:00,
2013-09-10 16:08:00,100.5,61.5,29.18,NW,314,3.6,4.0,28,0.00,,---,0.00,VWS V14.00,2013-09-10 21:08:00,
2013-09-10 16:11:00,100.3,61.3,29.18,NW,314,3.6,4.0,28,0.00,,---,0.00,VWS V14.00,2013-09-10 21:11:00,
2013-09-10 16:17:00,100.3,61.3,29.18,SSE,160,0.0,4.0,28,0.00,,---,0.00,VWS V14.00,2013-09-10 21:17:00,
2013-09-10 16:23:00,100.1,61.2,29.18,SSE,152,2.7,3.1,28,0.00,,---,0.00,VWS V14.00,2013-09-10 21:23:00,
2013-09-10 16:26:00,99.9,61.0,29.18,SSE,152,0.0,3.1,28,0.00,,---,0.00,VWS V14.00,2013-09-10 21:26:00,
2013-09-10 16:30:00,99.9,61.0,29.18,SSE,149,0.0,3.1,28,0.00,,---,0.00,VWS V14.00,2013-09-10 21:30:00,
2013-09-10 16:33:00,99.9,61.0,29.18,SW,215,0.0,0.0,28,0.00,,---,0.00,VWS V14.00,2013-09-10 21:33:00,
2013-09-10 16:36:00,99.9,61.0,29.18,SW,230,0.0,0.0,28,0.00,,---,0.00,VWS V14.00,2013-09-10 21:36:00,
2013-09-10 16:39:00,99.9,61.0,29.18,SW,230,0.0,0.0,28,0.00,,---,0.00,VWS V14.00,2013-09-10 21:39:00,
2013-09-10 16:42:00,99.9,61.0,29.18,SW,230,0.0,0.0,28,0.00,,---,0.00,VWS V14.00,2013-09-10 21:42:00,
2013-09-10 16:45:00,99.7,60.8,29.18,SW,230,0.0,0.0,28,0.00,,---,0.00,VWS V14.00,2013-09-10 21:45:00,
2013-09-10 16:47:00,99.7,60.8,29.18,SE,142,0.0,0.0,28,0.00,,---,0.00,VWS V14.00,2013-09-10 21:47:00,
2013-09-10 16:48:00,99.7,60.8,29.18,SE,142,0.0,0.0,28,0.00,,---,0.00,VWS V14.00,2013-09-10 21:48:00,
2013-09-10 16:54:00,99.6,60.7,29.18,SSW,211,0.0,0.0,28,0.00,,---,0.00,VWS V14.00,2013-09-10 21:54:00,
2013-09-10 16:57:00,99.4,60.5,29.18,SSW,211,0.0,0.0,28,0.00,,---,0.00,VWS V14.00,2013-09-10 21:57:00,
2013-09-10 17:00:00,99.2,60.4,29.18,SSW,211,0.0,0.0,28,0.00,,---,0.00,VWS V14.00,2013-09-10 22:00:00,
2013-09-10 17:02:00,99.2,60.4,29.18,SSW,211,0.0,0.0,28,0.00,,---,0.00,VWS V14.00,2013-09-10 22:02:00,
2013-09-10 17:03:00,99.2,60.4,29.18,SSW,211,0.0,0.0,28,0.00,,---,0.00,VWS V14.00,2013-09-10 22:03:00,
2013-09-10 17:09:00,98.8,61.1,29.18,SSW,211,0.0,0.0,29,0.00,,---,0.00,VWS V14.00,2013-09-10 22:09:00,
2013-09-10 17:15:00,98.7,60.9,29.18,SSW,211,0.0,0.0,29,0.00,,---,0.00,VWS V14.00,2013-09-10 22:15:00,
2013-09-10 17:17:00,98.5,60.8,29.18,SSW,211,0.0,0.0,29,0.00,,---,0.00,VWS V14.00,2013-09-10 22:17:00,
2013-09-10 17:24:00,98.1,61.4,29.18,South,177,3.1,3.1,30,0.00,,---,0.00,VWS V14.00,2013-09-10 22:24:00,
2013-09-10 17:30:00,97.9,61.3,29.18,South,177,0.0,3.1,30,0.00,,---,0.00,VWS V14.00,2013-09-10 22:30:00,
2013-09-10 17:32:00,97.9,61.3,29.18,South,177,0.0,3.1,30,0.00,,---,0.00,VWS V14.00,2013-09-10 22:32:00,
2013-09-10 17:33:00,97.9,61.3,29.18,South,177,0.0,0.0,30,0.00,,---,0.00,VWS V14.00,2013-09-10 22:33:00,
2013-09-10 17:36:00,97.8,61.1,29.18,South,177,0.0,0.0,30,0.00,,---,0.00,VWS V14.00,2013-09-10 22:36:00,
2013-09-10 17:42:00,97.6,61.9,29.18,South,177,0.0,0.0,31,0.00,,---,0.00,VWS V14.00,2013-09-10 22:42:00,
2013-09-10 17:45:00,97.4,61.7,29.18,South,177,0.0,0.0,31,0.00,,---,0.00,VWS V14.00,2013-09-10 22:45:00,
2013-09-10 17:47:00,97.4,61.7,29.18,South,177,0.0,0.0,31,0.00,,---,0.00,VWS V14.00,2013-09-10 22:47:00,
2013-09-10 17:51:00,97.2,62.5,29.18,South,177,0.0,0.0,32,0.00,,---,0.00,VWS V14.00,2013-09-10 22:51:00,
2013-09-10 17:57:00,97.0,62.3,29.18,South,177,2.2,3.1,32,0.00,,---,0.00,VWS V14.00,2013-09-10 22:57:00,
2013-09-10 18:00:00,96.9,62.2,29.18,South,177,2.2,3.1,32,0.00,,---,0.00,VWS V14.00,2013-09-10 23:00:00,
2013-09-10 18:02:00,96.9,63.0,29.18,South,177,2.2,3.1,33,0.00,,---,0.00,VWS V14.00,2013-09-10 23:02:00,
2013-09-10 18:03:00,96.9,63.0,29.18,South,177,2.2,2.2,33,0.00,,---,0.00,VWS V14.00,2013-09-10 23:03:00,
2013-09-10 18:09:00,96.5,62.7,29.18,South,177,0.0,2.2,33,0.00,,---,0.00,VWS V14.00,2013-09-10 23:09:00,
2013-09-10 18:12:00,96.5,62.7,29.18,South,177,0.0,2.2,33,0.00,,---,0.00,VWS V14.00,2013-09-10 23:12:00,
2013-09-10 18:15:00,96.3,63.4,29.18,South,177,0.0,2.2,34,0.00,,---,0.00,VWS V14.00,2013-09-10 23:15:00,
2013-09-10 18:17:00,96.1,63.2,29.18,South,177,0.0,2.2,34,0.00,,---,0.00,VWS V14.00,2013-09-10 23:17:00,
2013-09-10 18:18:00,96.1,63.2,29.18,South,177,0.0,0.0,34,0.00,,---,0.00,VWS V14.00,2013-09-10 23:18:00,
2013-09-10 18:24:00,95.8,62.9,29.18,South,177,0.0,0.0,34,0.00,,---,0.00,VWS V14.00,2013-09-10 23:24:00,
2013-09-10 18:27:00,95.6,62.8,29.18,South,177,0.0,0.0,34,0.00,,---,0.00,VWS V14.00,2013-09-10 23:27:00,
2013-09-10 18:30:00,95.4,63.5,29.18,South,177,0.0,0.0,35,0.00,,---,0.00,VWS V14.00,2013-09-10 23:30:00,
2013-09-10 18:32:00,95.2,63.3,29.18,South,177,0.0,0.0,35,0.00,,---,0.00,VWS V14.00,2013-09-10 23:32:00,
2013-09-10 18:36:00,95.2,63.3,29.18,South,177,0.0,0.0,35,0.00,,---,0.00,VWS V14.00,2013-09-10 23:36:00,
2013-09-10 18:42:00,94.5,63.5,29.18,South,177,0.0,0.0,36,0.00,,---,0.00,VWS V14.00,2013-09-10 23:42:00,
2013-09-10 18:45:00,94.3,63.3,29.18,South,177,0.0,0.0,36,0.00,,---,0.00,VWS V14.00,2013-09-10 23:45:00,
2013-09-10 18:48:00,94.2,63.2,29.18,South,177,0.0,0.0,36,0.00,,---,0.00,VWS V14.00,2013-09-10 23:48:00,
2013-09-10 18:51:00,94.0,63.0,29.18,South,177,0.0,0.0,36,0.00,,---,0.00,VWS V14.00,2013-09-10 23:51:00,
2013-09-10 18:54:00,94.0,63.0,29.18,South,177,0.0,0.0,36,0.00,,---,0.00,VWS V14.00,2013-09-10 23:54:00,
2013-09-10 19:00:00,93.4,63.3,29.18,South,177,0.0,0.0,37,0.00,,---,0.00,VWS V14.00,2013-09-11 00:00:00,
2013-09-10 19:02:00,93.3,63.1,29.18,South,177,0.0,0.0,37,0.00,,---,0.00,VWS V14.00,2013-09-11 00:02:00,
2013-09-10 19:09:00,92.9,62.8,29.18,South,177,0.0,0.0,37,0.00,,---,0.00,VWS V14.00,2013-09-11 00:09:00,
2013-09-10 19:12:00,92.5,62.5,29.18,South,177,0.0,0.0,37,0.00,,---,0.00,VWS V14.00,2013-09-11 00:12:00,
2013-09-10 19:17:00,92.4,62.3,29.18,South,177,0.0,0.0,37,0.00,,---,0.00,VWS V14.00,2013-09-11 00:17:00,
2013-09-10 19:18:00,92.4,62.3,29.18,South,177,0.0,0.0,37,0.00,,---,0.00,VWS V14.00,2013-09-11 00:18:00,
2013-09-10 19:21:00,92.2,62.9,29.18,South,177,0.0,0.0,38,0.00,,---,0.00,VWS V14.00,2013-09-11 00:21:00,
2013-09-10 19:24:00,92.2,62.9,29.18,South,177,0.0,0.0,38,0.00,,---,0.00,VWS V14.00,2013-09-11 00:24:00,
2013-09-10 19:27:00,91.6,63.2,29.18,South,177,0.0,0.0,39,0.00,,---,0.00,VWS V14.00,2013-09-11 00:27:00,
2013-09-10 19:30:00,91.6,63.2,29.18,South,177,0.0,0.0,39,0.00,,---,0.00,VWS V14.00,2013-09-11 00:30:00,
2013-09-10 19:32:00,91.5,63.8,29.18,South,177,0.0,0.0,40,0.00,,---,0.00,VWS V14.00,2013-09-11 00:32:00,
2013-09-10 19:33:00,91.5,63.8,29.18,South,177,0.0,0.0,40,0.00,,---,0.00,VWS V14.00,2013-09-11 00:33:00,
2013-09-10 19:39:00,90.9,63.3,29.18,South,177,0.0,0.0,40,0.00,,---,0.00,VWS V14.00,2013-09-11 00:39:00,
2013-09-10 19:42:00,90.9,64.0,29.18,South,177,0.0,0.0,41,0.00,,---,0.00,VWS V14.00,2013-09-11 00:42:00,
2013-09-10 19:45:00,90.7,63.8,29.21,South,177,0.0,0.0,41,0.00,,---,0.00,VWS V14.00,2013-09-11 00:45:00,
2013-09-10 19:47:00,90.7,63.8,29.21,South,177,0.0,0.0,41,0.00,,---,0.00,VWS V14.00,2013-09-11 00:47:00,
2013-09-10 19:48:00,90.6,63.7,29.21,South,177,0.0,0.0,41,0.00,,---,0.00,VWS V14.00,2013-09-11 00:48:00,
2013-09-10 19:54:00,90.4,64.2,29.21,South,177,0.0,0.0,42,0.00,,---,0.00,VWS V14.00,2013-09-11 00:54:00,
2013-09-10 19:57:00,90.2,64.7,29.21,South,177,0.0,0.0,43,0.00,,---,0.00,VWS V14.00,2013-09-11 00:57:00,
2013-09-10 20:00:00,90.2,64.7,29.21,South,177,0.0,0.0,43,0.00,,---,0.00,VWS V14.00,2013-09-11 01:00:00,
2013-09-10 20:02:00,90.0,65.2,29.21,South,177,0.0,0.0,44,0.00,,---,0.00,VWS V14.00,2013-09-11 01:02:00,
2013-09-10 20:03:00,90.0,65.2,29.21,South,177,0.0,0.0,44,0.00,,---,0.00,VWS V14.00,2013-09-11 01:03:00,
2013-09-10 20:06:00,89.8,65.0,29.21,South,177,0.0,0.0,44,0.00,,---,0.00,VWS V14.00,2013-09-11 01:06:00,
2013-09-10 20:09:00,89.7,64.9,29.21,South,177,0.0,0.0,44,0.00,,---,0.00,VWS V14.00,2013-09-11 01:09:00,
2013-09-10 20:12:00,89.5,65.3,29.21,South,177,0.0,0.0,45,0.00,,---,0.00,VWS V14.00,2013-09-11 01:12:00,
2013-09-10 20:18:00,89.3,65.8,29.21,South,177,0.0,0.0,46,0.00,,---,0.00,VWS V14.00,2013-09-11 01:18:00,
2013-09-10 20:24:00,88.9,65.5,29.21,South,177,0.0,0.0,46,0.00,,---,0.00,VWS V14.00,2013-09-11 01:24:00,
2013-09-10 20:27:00,88.9,65.5,29.21,South,177,0.0,0.0,46,0.00,,---,0.00,VWS V14.00,2013-09-11 01:27:00,
2013-09-10 20:30:00,88.8,65.9,29.21,South,177,0.0,0.0,47,0.00,,---,0.00,VWS V14.00,2013-09-11 01:30:00,
2013-09-10 20:33:00,88.8,65.9,29.21,South,177,0.0,0.0,47,0.00,,---,0.00,VWS V14.00,2013-09-11 01:33:00,
2013-09-10 20:36:00,88.8,65.9,29.21,South,177,0.0,0.0,47,0.00,,---,0.00,VWS V14.00,2013-09-11 01:36:00,
2013-09-10 20:42:00,88.8,65.9,29.21,South,177,0.0,0.0,47,0.00,,---,0.00,VWS V14.00,2013-09-11 01:42:00,
2013-09-10 20:45:00,88.8,65.9,29.21,South,177,0.0,0.0,47,0.00,,---,0.00,VWS V14.00,2013-09-11 01:45:00,
2013-09-10 20:52:00,88.8,65.9,29.21,South,177,0.0,0.0,47,0.00,,---,0.00,VWS V14.00,2013-09-11 01:52:00,
2013-09-10 20:55:00,88.8,65.9,29.21,South,177,0.0,0.0,47,0.00,,---,0.00,VWS V14.00,2013-09-11 01:55:00,
2013-09-10 20:58:00,88.8,65.9,29.21,South,177,0.0,0.0,47,0.00,,---,0.00,VWS V14.00,2013-09-11 01:58:00,
2013-09-10 21:01:00,88.8,65.9,29.21,South,177,0.0,0.0,47,0.00,,---,0.00,VWS V14.00,2013-09-11 02:01:00,
2013-09-10 21:02:00,88.8,65.9,29.21,South,177,0.0,0.0,47,0.00,,---,0.00,VWS V14.00,2013-09-11 02:02:00,
2013-09-10 21:10:00,88.8,65.9,29.21,South,177,0.0,0.0,47,0.00,,---,0.00,VWS V14.00,2013-09-11 02:10:00,
2013-09-10 21:13:00,88.8,65.9,29.21,South,177,0.0,0.0,47,0.00,,---,0.00,VWS V14.00,2013-09-11 02:13:00,
2013-09-10 21:17:00,88.8,65.9,29.21,South,177,0.0,0.0,47,0.00,,---,0.00,VWS V14.00,2013-09-11 02:17:00,
2013-09-10 21:22:00,88.8,65.9,29.21,South,177,0.0,0.0,47,0.00,,---,0.00,VWS V14.00,2013-09-11 02:22:00,
2013-09-10 21:28:00,88.8,65.9,29.21,South,177,0.0,0.0,47,0.00,,---,0.00,VWS V14.00,2013-09-11 02:28:00,
2013-09-10 21:31:00,88.8,65.9,29.21,South,177,0.0,0.0,47,0.00,,---,0.00,VWS V14.00,2013-09-11 02:31:00,
2013-09-10 21:34:00,88.8,65.9,29.23,South,177,0.0,0.0,47,0.00,,---,0.00,VWS V14.00,2013-09-11 02:34:00,
2013-09-10 21:37:00,88.8,65.9,29.23,South,177,0.0,0.0,47,0.00,,---,0.00,VWS V14.00,2013-09-11 02:37:00,
2013-09-10 21:40:00,88.8,65.9,29.23,South,177,0.0,0.0,47,0.00,,---,0.00,VWS V14.00,2013-09-11 02:40:00,
2013-09-10 21:43:00,88.8,65.9,29.23,South,177,0.0,0.0,47,0.00,,---,0.00,VWS V14.00,2013-09-11 02:43:00,
2013-09-10 21:46:00,88.8,65.9,29.23,South,177,0.0,0.0,47,0.00,,---,0.00,VWS V14.00,2013-09-11 02:46:00,
2013-09-10 21:47:00,88.8,65.9,29.23,South,177,0.0,0.0,47,0.00,,---,0.00,VWS V14.00,2013-09-11 02:47:00,
2013-09-10 21:52:00,88.8,65.9,29.23,South,177,0.0,0.0,47,0.00,,---,0.00,VWS V14.00,2013-09-11 02:52:00,
2013-09-10 21:58:00,88.8,65.9,29.23,South,177,0.0,0.0,47,0.00,,---,0.00,VWS V14.00,2013-09-11 02:58:00,
2013-09-10 22:01:00,88.8,65.9,29.23,South,177,0.0,0.0,47,0.00,,---,0.00,VWS V14.00,2013-09-11 03:01:00,
2013-09-10 22:02:00,88.8,65.9,29.23,South,177,0.0,0.0,47,0.00,,---,0.00,VWS V14.00,2013-09-11 03:02:00,
2013-09-10 22:07:00,84.6,66.2,29.23,South,177,0.0,0.0,54,0.00,,---,0.00,VWS V14.00,2013-09-11 03:07:00,
2013-09-10 22:10:00,84.6,66.2,29.23,South,177,0.0,0.0,54,0.00,,---,0.00,VWS V14.00,2013-09-11 03:10:00,
2013-09-10 22:13:00,84.6,66.2,29.23,South,177,0.0,0.0,54,0.00,,---,0.00,VWS V14.00,2013-09-11 03:13:00,
2013-09-10 22:17:00,84.6,66.2,29.23,South,177,0.0,0.0,54,0.00,,---,0.00,VWS V14.00,2013-09-11 03:17:00,
2013-09-10 22:19:00,84.6,66.2,29.23,South,177,0.0,0.0,54,0.00,,---,0.00,VWS V14.00,2013-09-11 03:19:00,
2013-09-10 22:22:00,84.6,66.2,29.23,South,177,0.0,0.0,54,0.00,,---,0.00,VWS V14.00,2013-09-11 03:22:00,
2013-09-10 22:28:00,84.6,66.2,29.23,South,177,0.0,0.0,54,0.00,,---,0.00,VWS V14.00,2013-09-11 03:28:00,
2013-09-10 22:31:00,84.6,66.2,29.23,South,177,0.0,0.0,54,0.00,,---,0.00,VWS V14.00,2013-09-11 03:31:00,
2013-09-10 22:32:00,84.6,66.2,29.23,South,177,0.0,0.0,54,0.00,,---,0.00,VWS V14.00,2013-09-11 03:32:00,
2013-09-10 22:34:00,83.0,65.7,29.23,South,177,0.0,0.0,56,0.00,,---,0.00,VWS V14.00,2013-09-11 03:34:00,
2013-09-10 22:37:00,83.0,65.7,29.23,South,177,0.0,0.0,56,0.00,,---,0.00,VWS V14.00,2013-09-11 03:37:00,
2013-09-10 22:43:00,83.0,65.7,29.23,South,177,0.0,0.0,56,0.00,,---,0.00,VWS V14.00,2013-09-11 03:43:00,
2013-09-10 22:46:00,83.0,65.7,29.23,South,177,0.0,0.0,56,0.00,,---,0.00,VWS V14.00,2013-09-11 03:46:00,
2013-09-10 22:47:00,83.0,65.7,29.23,South,177,0.0,0.0,56,0.00,,---,0.00,VWS V14.00,2013-09-11 03:47:00,
2013-09-10 22:49:00,83.0,65.7,29.23,South,177,0.0,0.0,56,0.00,,---,0.00,VWS V14.00,2013-09-11 03:49:00,
2013-09-10 22:52:00,83.0,65.7,29.23,South,177,0.0,0.0,56,0.00,,---,0.00,VWS V14.00,2013-09-11 03:52:00,
2013-09-10 22:55:00,83.0,65.7,29.23,South,177,0.0,0.0,56,0.00,,---,0.00,VWS V14.00,2013-09-11 03:55:00,
2013-09-10 22:58:00,83.0,65.7,29.23,South,177,0.0,0.0,56,0.00,,---,0.00,VWS V14.00,2013-09-11 03:58:00,
2013-09-10 23:01:00,83.0,65.7,29.23,South,177,0.0,0.0,56,0.00,,---,0.00,VWS V14.00,2013-09-11 04:01:00,
2013-09-10 23:04:00,83.0,65.7,29.23,South,177,0.0,0.0,56,0.00,,---,0.00,VWS V14.00,2013-09-11 04:04:00,
2013-09-10 23:07:00,83.0,65.7,29.23,South,177,0.0,0.0,56,0.00,,---,0.00,VWS V14.00,2013-09-11 04:07:00,
2013-09-10 23:10:00,83.0,65.7,29.23,South,177,0.0,0.0,56,0.00,,---,0.00,VWS V14.00,2013-09-11 04:10:00,
2013-09-10 23:13:00,83.0,65.7,29.23,South,177,0.0,0.0,56,0.00,,---,0.00,VWS V14.00,2013-09-11 04:13:00,
2013-09-10 23:16:00,83.0,65.7,29.23,South,177,0.0,0.0,56,0.00,,---,0.00,VWS V14.00,2013-09-11 04:16:00,
2013-09-10 23:17:00,83.0,65.7,29.23,South,177,0.0,0.0,56,0.00,,---,0.00,VWS V14.00,2013-09-11 04:17:00,
2013-09-10 23:22:00,83.0,65.7,29.23,South,177,0.0,0.0,56,0.00,,---,0.00,VWS V14.00,2013-09-11 04:22:00,
2013-09-10 23:25:00,83.0,65.7,29.23,South,177,0.0,0.0,56,0.00,,---,0.00,VWS V14.00,2013-09-11 04:25:00,
2013-09-10 23:28:00,83.0,65.7,29.23,South,177,0.0,0.0,56,0.00,,---,0.00,VWS V14.00,2013-09-11 04:28:00,
2013-09-10 23:31:00,83.0,65.7,29.23,South,177,0.0,0.0,56,0.00,,---,0.00,VWS V14.00,2013-09-11 04:31:00,
2013-09-10 23:32:00,83.0,65.7,29.23,South,177,0.0,0.0,56,0.00,,---,0.00,VWS V14.00,2013-09-11 04:32:00,
2013-09-10 23:37:00,83.0,65.7,29.23,South,177,0.0,0.0,56,0.00,,---,0.00,VWS V14.00,2013-09-11 04:37:00,
2013-09-10 23:40:00,83.0,65.7,29.23,South,177,0.0,0.0,56,0.00,,---,0.00,VWS V14.00,2013-09-11 04:40:00,
2013-09-10 23:43:00,83.0,65.7,29.23,South,177,0.0,0.0,56,0.00,,---,0.00,VWS V14.00,2013-09-11 04:43:00,
2013-09-10 23:46:00,83.0,65.7,29.23,South,177,0.0,0.0,56,0.00,,---,0.00,VWS V14.00,2013-09-11 04:46:00,
2013-09-10 23:49:00,83.0,65.7,29.23,South,177,0.0,0.0,56,0.00,,---,0.00,VWS V14.00,2013-09-11 04:49:00,
2013-09-10 23:55:00,83.0,65.7,29.23,South,177,0.0,0.0,56,0.00,,---,0.00,VWS V14.00,2013-09-11 04:55:00,
2013-09-10 23:58:00,83.0,65.7,29.23,South,177,0.0,0.0,56,0.00,,---,0.00,VWS V14.00,2013-09-11 04:58:00,